Location: Be?i?
(36.9044°N, 30.1006°E)
Time: 12:17:06
(UTC+00:00)

Cosmos 2297 - Pass Details

Date: 05 August 2024
Orbit: 837 x 856 km, 71.0° (Epoch: 08 September)

Event Time Altitude Azimuth Distance (km) Brightness Sun altitude
Rises 17:53:00 0° 208° (SSW) 3,406 6.8 -10.0°
Reaches altitude 10° 17:55:28 10° 212° (SSW) 2,472 6.2 -10.4°
Maximum altitude 18:01:06 65° 293° (WNW) 932 4.2 -11.4°
Drops below altitude 10° 18:06:45 10° 16° (NNE) 2,474 6.3 -12.4°
Sets 18:09:14 0° 19° (NNE) 3,410 7.0 -12.8°
